Location: Port-Aux-Quilles Astronomical Observatory
(47.9769°N, 69.9642°W)
Time: 00:53:21
(UTC-05:00)

Envisat - Pass Details

Date: 25 October 2019
Orbit: 764 x 766 km, 98.1° (Epoch: 18 November)

Event Time Altitude Azimuth Distance (km) Brightness Sun altitude
Rises 18:44:33 0° 170° (S) 3,220 6.2 -12.5°
Reaches altitude 10° 18:46:51 10° 172° (S) 2,298 5.4 -12.9°
Maximum altitude 18:51:54 73° 257° (WSW) 803 3.3 -13.7°
Drops below altitude 10° 18:57:01 10° 343° (NNW) 2,314 5.7 -14.6°
Sets 18:59:20 0° 345° (NNW) 3,245 6.4 -15.0°
